www.pogodaiklimat.ru

Погода и климат >> Архив погоды >> Россия >> Свердловская область >> Екатеринбург


АРХИВ ПОГОДЫ в Екатеринбурге

Время (UTC), дата Ветер
(напр.,м/с)
 
Видим.   Явления Облачность Т
(С)
Тd
(С)
f
(%)
Тe
(С)
Тes
(С)
Комфортность P
(гПа)
Po
(гПа)
Тmin
(С)
Tmax
(С)
R
(мм)
R24
(мм)
S
(см)
09 14.10 З 1 4000 м мгла 10/0
[Ac trans Cc]
+12.1 -1.7 38 +13 +15 тепло 1014.6 981.2
12 14.10 СЗ 1 4000 м мгла 10/0
[Cc]
+11.9 -0.6 42 +12 +13 тепло 1014.2 980.8
15 14.10 ЮВ 1 4000 м 10/0
[Ci fib]
+8.3 +0.3 57 +8 +8 тепло 1015.3 981.4 +12.9
18 14.10 штиль 0 4000 м дымка 6/0
[Cs]
+4.7 +0.5 74 +4 +4 по сезону 1015.6 981.3
21 14.10 штиль 0 4000 м дымка ясно +2.5 -0.3 82 +2 +2 по сезону 1015.4 980.8
00 15.10 штиль 0 4000 м ясно +1.5 -0.9 84 0 0 по сезону 1015.2 980.5
03 15.10 Ю 1 4000 м дымка 10/0
[Cs]
+0.2 -1.8 86 -2 -2 по сезону 1015.3 980.5 +0.1
06 15.10 Ю 1 10 км 10/0
[Cs]
+7.2 +0.5 62 +7 +9 тепло 1013.8 979.8
09 15.10 ЮВ 2 20 км 8/0
[Ci fib]
+11.4 +0.4 47 +11 +13 тепло 1012.3 978.9
12 15.10 ЮВ 3 20 км 10/0
[Cs]
+10.2 +0.5 51 +9 +9 тепло 1011.7 978.2
15 15.10 ЮВ 3 10 км 10/0
[Cs]
+8.6 +0.6 57 +6 +6 тепло 1012.1 978.4 +11.7
18 15.10 ЮВ 3 10 км 10/0
[Cs]
+7.9 +0.7 60 +6 +6 тепло 1011.9 978.1
21 15.10 ЮВ 3 10 км 10/5 1000 м
[Sc Cs]
+7.1 +0.2 61 +5 +5 тепло 1011.4 977.5
00 16.10 ЮВ 4 10 км 10/6 1000 м
[Sc Cs]
+6.7 0.0 62 +3 +3 по сезону 1011.3 977.4
03 16.10 ЮВ 2 10 км 10/10 1000 м
[Sc]
+6.2 -0.2 64 +4 +4 по сезону 1012.7 978.6 +6.2
06 16.10 ЮВ 3 10 км 10/10 600 м
[Sc]
+6.7 -0.4 60 +4 +4 по сезону 1013.4 979.4 +6.1
09 16.10 ЮВ 4
{10}
10 км 9/6 600 м
[Sc As trans]
+10.0 -0.8 47 +8 +8 тепло 1013.3 979.7
12 16.10 В 4
{10}
10 км 10/0
[As op]
+11.1 -0.6 44 +9 +9 тепло 1013.7 980.1
15 16.10 В 4-10
{10}
10 км 10/0
[As op]
+9.1 -0.3 52 +7 +7 тепло 1014.7 981.0 +11.6
18 16.10 ЮВ 4
{10}
10 км 10/0
[As op]
+7.1 -1.3 55 +4 +4 по сезону 1015.1 981.1
21 16.10 ЮВ 3 10 км 10/0
[As op]
+5.7 -2.1 57 +3 +3 по сезону 1014.9 980.7
00 17.10 В 2 10 км 6/6 600 м
[Sc]
+3.9 -2.5 63 +1 +1 по сезону 1014.1 979.7
03 17.10 В 2 10 км 9/9 600 м
[]
+3.4 -2.5 65 +1 +1 по сезону 1013.4 979.0 +3.1
06 17.10 ЮВ 3 20 км 8/0
[Cs]
+7.4 -1.4 54 +5 +6 тепло 1011.7 977.9
09 17.10 ЮВ 2 20 км 10/0
[Ac trans Cc]
+10.4 -0.7 46 +9 +11 тепло 1009.3 975.9
12 17.10 ЮВ 3 10 км 10/0
[Cc]
+11.6 -0.6 43 +10 +10 тепло 1006.9 973.7
15 17.10 ЮВ 5 10 км 8/8 600 м
[Sc]
+9.5 -0.4 50 +7 +7 тепло 1006.1 972.7 +12.0
18 17.10 ЮВ 3 10 км 9/9 600 м
[Sc]
+9.2 0.0 53 +7 +7 тепло 1004.6 971.2
21 17.10 ЮВ 3 10 км 10/0
[Ac As]
+7.9 +0.4 59 +6 +6 тепло 1002.9 969.4
00 18.10 ЮВ 1 10 км 10/0
[As op]
+6.8 +0.7 65 +6 +6 тепло 1002.3 968.7
03 18.10 ЮВ 1 10 км слабый ливневой дождь 10/10 600 м
[Cb calv]
+5.2 +3.5 89 +4 +4 тепло 1002.5 968.7 +5.2 1
06 18.10 З 2 10 км слабый ливневой дождь 9/9 600 м
[Cb cap]
+7.7 +6.2 90 +6 +6 тепло 1002.4 968.9 +5.2
09 18.10 З 4
{10}
20 км {ливн. осадки} 8/4 600 м
[Cb calv Ac trans]
+8.1 +4.6 79 +5 +6 тепло 1002.7 969.3
12 18.10 З 5
{11}
50 км {ливн. осадки} 9/9 600 м
[Cb calv]
+5.3 -0.1 68 +1 +1 по сезону 1004.1 970.3
15 18.10 З 2 10 км 8/3 600 м
[Sc Cc]
+4.3 -0.5 71 +2 +2 по сезону 1005.1 971.1 +8.9 1
18 18.10 ЮЗ 1 10 км 6/6 600 м
[Cb calv]
+2.6 -0.5 80 +1 +1 по сезону 1004.4 970.2
21 18.10 ЮЗ 2 10 км 9/9 600 м
[Sc]
+3.4 -0.5 76 +1 +1 по сезону 1003.4 969.4
00 19.10 Ю 2 10 км 9/8 600 м
[Sc Cs]
+3.3 -0.9 74 +1 +1 по сезону 1002.0 968.0
03 19.10 Ю 3 20 км 10/10 1000 м
[Sc]
+3.3 -0.3 77 -1 -1 по сезону 1001.1 967.2 +2.6
06 19.10 ЮЗ 2 20 км 10/8 1000 м
[Sc Ac As]
+5.6 +1.2 73 +3 +3 по сезону 999.3 965.7
09 19.10 Ю 2 20 км 10/8 1000 м
[Sc Ac As]
+7.1 +2.7 74 +5 +5 тепло 997.5 964.2
12 19.10 ЮЗ 4 20 км 10/10 600 м
[Cb cap]
+7.8 +4.1 77 +5 +5 по сезону 996.1 962.9
15 19.10 З 3
{12}
10 км {ливн. осадки} 8/8 600 м
[Cb cap]
+5.6 +2.8 82 +2 +2 по сезону 996.3 962.8 +7.9 2
18 19.10 З 4
{11}
10 км {ливн. осадки} 10/10 600 м
[Cb cap]
+3.8 +0.6 80 -1 -1 по сезону 997.1 963.3
21 19.10 З 5
{14}
10 км слабый ливневой дождь 10/10 600 м
[Cb cap]
+2.9 0.0 81 -2 -2 по сезону 997.7 963.8
00 20.10 З 6-12
{13}
10 км {ливн. осадки} 9/9 600 м
[Cb cap]
+2.5 -1.3 76 -3 -3 по сезону 998.0 964.0
03 20.10 З 5-12
{14}
20 км 9/9 600 м
[Cb cap]
+2.3 -1.6 75 -3 -3 прохладно 998.7 964.7 +2.3 0.0
06 20.10 З 4
{16}
20 км в посл. час ливневой снег 8/8 600 м
[Cb calv]
+2.6 -0.3 81 -2 -2 по сезону 999.8 965.8 +1.5
09 20.10 З 5-10
{14}
20 км в посл. час ливневой снег 10/10 600 м
[Cb calv]
+3.4 -1.0 73 -2 -2 прохладно 1001.3 967.3
12 20.10 З 5-12
{17}
20 км в посл. час крупа {ливн. осадки, метель} 9/9 600 м
[Cb calv]
+1.6 -1.8 78 -4 -4 холодно 1003.2 969.0
15 20.10 З 5-10
{17}
10 км 6/6 600 м
[Sc diur, vesp]
-0.1 -5.9 65 -6 -6 холодно 1004.9 970.4 +3.7 0.7
18 20.10 З 6-10
{14}
10 км 10/10 600 м
[Sc]
-0.5 -5.5 69 -7 -7 холодно 1005.3 970.7
21 20.10 СЗ 5
{16}
10 км 10/6 600 м
[Sc Ac und]
-1.0 -7.1 63 -7 -7 холодно 1006.3 971.6
00 21.10 СЗ 6-11
{14}
10 км {ливн. осадки} 10/8 600 м
[Sc Ac As]
-1.5 -9.4 55 -8 -8 холодно 1007.5 972.7
03 21.10 З 5
{13}
10 км в посл. час ливневой снег 10/9 600 м
[Cb calv Ac As]
-1.7 -7.5 65 -8 -8 холодно 1008.2 973.3 -1.8 0.0

 

Местоположение метеостанции Екатеринбург (Свердловская область, Россия): широта 56.83 долгота 60.63 высота над уровнем моря 281 м.

В архиве по умолчанию представлена погода в Екатеринбурге за последнюю неделю. Архивные данные за месяц целиком и за предыдущие месяцы, начиная с января 2011 года, Вы можете получить, выбрав интересующий диапазон дат из раскрывающегося списка и нажав кнопку "Ввод!".

Внимание! Время в таблицах - всемирное. Для получения местного времени необходимо прибавить поправку, которая в Екатеринбурге равна 5 ч.

Смотрите также архив погоды в соседних городах и на ближайших метеорологических станциях:

Погода в Верхнем Дуброво (Свердловская область, Россия) (29 км)
Погода в Сысерти (Свердловская область, Россия) (38 км)
Погода в Ревде (Свердловская область, Россия) (40 км)
Погода в Невьянске (Свердловская область, Россия) (78 км)
Погода в Верхнем Уфалее (Челябинская область, Россия) (86 км)
Погода в Каменск-Уральском (Свердловская область, Россия) (88 км)
Погода в Бисерти (Свердловская область, Россия) (95 км)
Погода в Артемовском (Свердловская область, Россия) (98 км)
Погода в Михайловске (Свердловская область, Россия) (105 км)
Погода в Нязепетровске (Челябинская область, Россия) (108 км)

Пояснения к столбцам:

Ветер - указаны скорость ветра в м/с - средняя за 10 мин, порывы в срок и между сроками (в фигурных скобках) и направление, откуда дует ветер: С - северный, СВ - северо-восточный, В - восточный, ЮВ - юго-восточный, Ю - южный, ЮЗ - юго-западный, З - западный, СЗ - северо-западный.
Видимость - горизонтальная дальность видимости в метрах или километрах. При видимости от 1 до 10 км при отсутствии осадков обычно наблюдается дымка, при ухудшении видимости до 1 км и менее - туман. В сухую погоду видимость может ухудшаться дымом, пылью или мглою.
Явления - указаны атмосферные явления, наблюдавшиеся в срок или в последний час перед сроком; фигурными скобками обозначены явления, наблюдавшиеся между сроками (за 1-3 часа до срока); квадратными скобками обозначены град или гололедные отложения с указанием их диаметра в мм.
Облачность - указаны через наклонную черту общая и нижняя облачность в баллах и высота нижней границы облаков в метрах; квадратными скобками обозначены формы облаков: Ci - перистые, Cs - перисто-слоистые, Cc - перисто-кучевые, Ac - высококучевые, As - высокослоистые, Sc - слоисто-кучевые, Ns - слоисто-дождевые, Cu - кучевые, Cb - кучево-дождевые. Подробнее классификацию облаков см. в Атласе облаков (PDF).
T - Температура воздуха - температура, измеренная на высоте 2 м над землей.
Td - Температура точки росы - температура, при понижении до которой содержащийся в воздухе водяной пар достигнет насыщения.
f - Относительная влажность воздуха - влажноcть воздуха, измеренная на высоте 2 м над землей.
Te - Эффективная температура - температура, которую ощущает одетый по сезону человек в тени. Характеристика душности погоды. При расчете учитывается влияние влажности воздуха и скорости ветра на теплоощущения человека.
Tes - Эффективная температура на солнце - температура, которую ощущает человек, с поправкой на солнечный нагрев. Характеристика знойности погоды. Зависит от высоты солнца над горизонтом, облачности и скорости ветра. Ночью, в пасмурную погоду, а также при ветре 12 м/с и более поправка равна нулю.
P - Атмосферное давление - приведенное к уровню моря атмосферное давление.
Po - Атмосферное давление - измеренное на уровне метеостанции атмосферное давление.
Tmin - Минимальная температура - минимум температуры воздуха на высоте 2 м над землей.
Tmax - Максимальная температура - максимум температуры воздуха на высоте 2 м над землей.
R - Количество осадков - Количество выпавших осадков за период времени, мм. При наведении курсора мыши на число - период времени, за который выпало указанное количество осадков.
R24 - Количество осадков - Количество выпавших осадков за 24 часа, мм.
S - Снежный покров - Высота снежного покрова, см. При наведении курсора мыши на число - состояние снежного покрова и степень покрытия местности в баллах.